QPF
0.00 0.00 0.00 0.00 0.00 0.01 0.03 0.02 0.01 0.00 0.00 0.00 0.00 0.00 0.00 0.00 0.00 0.00 0.00 0.00 0.00 0.00 0.00 0.00 0.00 0.00 0.00 0.00 0.00 0.00 0.00 0.00 0.00 0.00 0.00 0.00 0.00 0.00 0.00 0.00 0.00 0.00 0.00 0.00 0.00
0.00 0.00 0.01 0.00 0.00 0.00 0.01 0.03 0.04 0.02 0.01 0.00 0.00 0.00 0.00 0.00 0.00 0.00 0.00 0.00 0.00 0.00 0.00 0.00 0.00 0.00 0.00 0.00 0.00 0.00 0.00 0.00 0.00 0.00 0.00 0.00 0.00 0.00 0.00 0.00 0.00 0.00 0.00 0.00 0.00
0.00 0.00 0.01 0.01 0.00 0.00 0.00 0.01 0.03 0.04 0.03 0.02 0.00 0.00 0.00 0.00 0.00 0.00 0.00 0.00 0.00 0.00 0.00 0.00 0.00 0.00 0.00 0.00 0.00 0.00 0.00 0.00 0.00 0.00 0.00 0.00 0.00 0.00 0.00 0.00 0.00 0.00 0.00 0.00 0.00
0.00 0.00 0.01 0.01 0.01 0.00 0.00 0.00 0.00 0.01 0.02 0.03 0.02 0.00 0.00 0.00 0.00 0.00 0.00 0.00 0.00 0.00 0.00 0.00 0.00 0.00 0.00 0.00 0.00 0.00 0.00 0.00 0.00 0.00 0.00 0.00 0.00 0.00 0.00 0.00 0.00 0.00 0.00 0.00 0.00
0.00 0.00 0.00 0.01 0.01 0.00 0.00 0.00 0.00 0.00 0.00 0.00 0.01 0.02 0.00 0.00 0.00 0.00 0.00 0.00 0.00 0.00 0.00 0.00 0.00 0.00 0.00 0.00 0.00 0.00 0.00 0.00 0.00 0.00 0.00 0.00 0.00 0.00 0.00 0.00 0.00 0.00 0.00 0.00 0.00
0.01 0.00 0.00 0.00 0.00 0.00 0.00 0.01 0.01 0.01 0.00 0.00 0.00 0.03 0.01 0.00 0.00 0.00 0.00 0.00 0.00 0.00 0.00 0.00 0.00 0.00 0.00 0.00 0.00 0.00 0.00 0.00 0.00 0.00 0.00 0.00 0.00 0.00 0.00 0.00 0.00 0.00 0.00 0.00 0.00
0.02 0.01 0.00 0.00 0.00 0.00 0.01 0.01 0.02 0.02 0.00 0.00 0.00 0.02 0.02 0.00 0.00 0.00 0.00 0.00 0.00 0.00 0.00 0.00 0.00 0.00 0.00 0.00 0.00 0.00 0.00 0.00 0.00 0.00 0.00 0.00 0.00 0.00 0.00 0.00 0.00 0.00 0.00 0.00 0.00
0.02 0.02 0.01 0.00 0.00 0.00 0.00 0.00 0.01 0.02 0.01 0.00 0.00 0.01 0.02 0.00 0.00 0.00 0.00 0.00 0.00 0.00 0.00 0.00 0.00 0.00 0.00 0.00 0.00 0.00 0.00 0.00 0.00 0.00 0.00 0.00 0.00 0.00 0.00 0.00 0.00 0.00 0.00 0.00 0.00
0.02 0.03 0.03 0.01 0.00 0.00 0.00 0.00 0.00 0.00 0.00 0.00 0.01 0.02 0.01 0.00 0.00 0.00 0.00 0.00 0.00 0.00 0.00 0.00 0.00 0.00 0.00 0.00 0.00 0.00 0.00 0.00 0.00 0.00 0.00 0.00 0.00 0.00 0.00 0.00 0.00 0.00 0.00 0.00 0.00
0.01 0.02 0.03 0.02 0.01 0.00 0.00 0.00 0.00 0.00 0.00 0.01 0.01 0.03 0.00 0.00 0.00 0.00 0.00 0.00 0.00 0.00 0.00 0.00 0.00 0.00 0.00 0.00 0.00 0.00 0.00 0.00 0.00 0.00 0.00 0.00 0.00 0.00 0.00 0.00 0.00 0.00 0.00 0.00 0.00
0.01 0.01 0.03 0.03 0.03 0.02 0.01 0.00 0.00 0.00 0.01 0.00 0.00 0.00 0.00 0.00 0.00 0.00 0.00 0.00 0.00 0.00 0.00 0.00 0.00 0.00 0.00 0.00 0.00 0.00 0.00 0.00 0.00 0.00 0.00 0.00 0.00 0.00 0.00 0.00 0.00 0.00 0.00 0.00 0.00
0.01 0.00 0.01 0.03 0.05 0.05 0.02 0.00 0.00 0.00 0.00 0.00 0.00 0.00 0.00 0.00 0.00 0.00 0.00 0.00 0.00 0.00 0.00 0.00 0.00 0.00 0.00 0.00 0.00 0.00 0.00 0.00 0.00 0.00 0.00 0.00 0.00 0.00 0.00 0.00 0.00 0.00 0.00 0.00 0.00
0.02 0.02 0.02 0.04 0.05 0.04 0.01 0.00 0.00 0.01 0.01 0.00 0.00 0.00 0.00 0.00 0.00 0.00 0.00 0.00 0.00 0.00 0.00 0.00 0.00 0.00 0.00 0.00 0.00 0.00 0.00 0.00 0.00 0.00 0.00 0.00 0.00 0.00 0.00 0.00 0.00 0.00 0.00 0.00 0.00
0.01 0.03 0.03 0.06 0.05 0.01 0.00 0.00 0.00 0.00 0.01 0.00 0.00 0.00 0.00 0.00 0.00 0.00 0.00 0.00 0.00 0.00 0.00 0.00 0.00 0.00 0.00 0.00 0.00 0.00 0.00 0.00 0.00 0.00 0.00 0.00 0.00 0.00 0.00 0.00 0.00 0.00 0.00 0.00 0.00
0.02 0.03 0.05 0.06 0.01 0.00 0.00 0.00 0.01 0.00 0.01 0.00 0.00 0.00 0.00 0.00 0.00 0.00 0.00 0.00 0.00 0.00 0.00 0.00 0.00 0.00 0.00 0.00 0.00 0.00 0.00 0.00 0.00 0.00 0.00 0.00 0.00 0.00 0.00 0.00 0.00 0.00 0.00 0.00 0.00
0.03 0.05 0.06 0.06 0.00 0.00 0.00 0.00 0.03 0.01 0.00 0.00 0.01 0.00 0.00 0.00 0.00 0.00 0.00 0.00 0.00 0.00 0.00 0.00 0.00 0.00 0.00 0.00 0.00 0.00 0.00 0.00 0.00 0.00 0.00 0.00 0.00 0.00 0.00 0.00 0.00 0.00 0.00 0.00 0.00
0.03 0.05 0.07 0.03 0.00 0.00 0.00 0.02 0.01 0.00 0.00 0.00 0.01 0.00 0.00 0.00 0.00 0.00 0.00 0.00 0.00 0.00 0.00 0.00 0.00 0.00 0.00 0.00 0.00 0.00 0.00 0.00 0.00 0.00 0.00 0.00 0.00 0.00 0.00 0.00 0.00 0.00 0.00 0.00 0.00
0.04 0.04 0.06 0.01 0.00 0.00 0.01 0.01 0.00 0.00 0.00 0.00 0.00 0.00 0.00 0.00 0.00 0.00 0.00 0.00 0.00 0.00 0.00 0.00 0.00 0.00 0.00 0.00 0.00 0.00 0.00 0.00 0.00 0.00 0.00 0.00 0.00 0.00 0.00 0.00 0.00 0.00 0.00 0.00 0.00
0.09 0.05 0.03 0.00 0.00 0.00 0.00 0.00 0.00 0.00 0.00 0.00 0.01 0.02 0.00 0.00 0.00 0.01 0.00 0.00 0.00 0.00 0.00 0.00 0.00 0.00 0.00 0.00 0.00 0.00 0.00 0.00 0.00 0.00 0.00 0.00 0.00 0.00 0.00 0.00 0.00 0.00 0.00 0.00 0.00
0.07 0.02 0.00 0.00 0.00 0.00 0.00 0.00 0.00 0.00 0.00 0.01 0.01 0.02 0.00 0.00 0.00 0.00 0.01 0.00 0.00 0.00 0.00 0.00 0.00 0.00 0.00 0.00 0.00 0.00 0.00 0.00 0.00 0.00 0.00 0.00 0.00 0.00 0.00 0.00 0.00 0.00 0.00 0.00 0.00
0.01 0.01 0.00 0.00 0.00 0.01 0.00 0.00 0.00 0.00 0.00 0.02 0.03 0.05 0.03 0.02 0.01 0.00 0.00 0.00 0.00 0.00 0.00 0.00 0.00 0.00 0.00 0.00 0.00 0.00 0.00 0.00 0.00 0.00 0.00 0.00 0.00 0.00 0.00 0.00 0.00 0.00 0.00 0.00 0.00
0.00 0.00 0.01 0.01 0.00 0.00 0.00 0.00 0.00 0.00 0.00 0.00 0.01 0.04 0.05 0.04 0.03 0.01 0.00 0.00 0.00 0.00 0.00 0.00 0.00 0.00 0.00 0.00 0.00 0.00 0.00 0.00 0.00 0.00 0.00 0.00 0.00 0.00 0.00 0.00 0.00 0.00 0.00 0.00 0.00
0.00 0.00 0.01 0.01 0.00 0.00 0.00 0.00 0.00 0.00 0.00 0.00 0.01 0.02 0.04 0.05 0.05 0.03 0.00 0.00 0.00 0.00 0.00 0.00 0.01 0.00 0.00 0.00 0.00 0.00 0.00 0.00 0.00 0.00 0.00 0.00 0.00 0.00 0.00 0.00 0.00 0.00 0.00 0.00 0.00
0.00 0.00 0.00 0.00 0.00 0.00 0.00 0.00 0.00 0.00 0.00 0.00 0.00 0.01 0.03 0.04 0.05 0.02 0.00 0.00 0.00 0.00 0.00 0.01 0.00 0.00 0.00 0.00 0.00 0.00 0.00 0.00 0.00 0.00 0.00 0.00 0.00 0.00 0.00 0.00 0.00 0.00 0.00 0.00 0.00
0.00 0.00 0.00 0.00 0.00 0.00 0.00 0.00 0.00 0.00 0.00 0.00 0.00 0.00 0.01 0.03 0.04 0.03 0.04 0.03 0.02 0.02 0.02 0.03 0.01 0.00 0.00 0.00 0.00 0.00 0.00 0.00 0.00 0.00 0.00 0.00 0.00 0.00 0.00 0.00 0.00 0.00 0.00 0.00 0.00
0.00 0.00 0.00 0.00 0.00 0.00 0.00 0.00 0.00 0.00 0.00 0.00 0.00 0.00 0.00 0.00 0.02 0.01 0.03 0.03 0.03 0.04 0.05 0.04 0.01 0.00 0.00 0.00 0.00 0.00 0.00 0.00 0.00 0.00 0.00 0.00 0.00 0.00 0.00 0.00 0.00 0.00 0.00 0.00 0.00
0.00 0.00 0.00 0.00 0.00 0.00 0.00 0.00 0.00 0.00 0.00 0.00 0.00 0.00 0.00 0.00 0.00 0.00 0.01 0.02 0.04 0.05 0.04 0.04 0.01 0.00 0.00 0.00 0.00 0.00 0.00 0.00 0.00 0.00 0.00 0.00 0.00 0.00 0.00 0.00 0.00 0.00 0.00 0.00 0.00
MSLP
1016.62 1016.54 1016.33 1016.21 1016.19 1016.13 1015.94 1015.72 1015.55 1015.55 1015.56 1015.58 1015.54 1015.47 1015.35 1015.15 1014.91 1014.85 1014.36 1012.36 1012.21 1012.14 1012.24 1013.05 1013.42 1013.56 1013.83 1014.25 1014.49 1014.78 1015.65 1015.79 1014.84 1014.35 1013.04 1012.65 1012.66 1012.45 1012.31 1012.35 1012.52 1012.65 1012.89 1013.36 1013.86
1016.40 1016.30 1016.31 1016.26 1016.15 1016.09 1015.97 1015.75 1015.30 1015.34 1015.25 1015.22 1015.34 1015.27 1015.18 1014.99 1014.91 1014.02 1011.80 1011.81 1011.78 1012.06 1012.43 1012.80 1013.43 1013.67 1014.14 1014.27 1014.56 1014.79 1015.19 1014.54 1013.45 1012.94 1012.51 1012.33 1012.45 1012.27 1012.50 1012.61 1012.64 1012.72 1013.03 1013.50 1014.07
1015.91 1015.96 1016.04 1016.04 1015.98 1015.95 1015.91 1015.80 1015.65 1015.31 1015.12 1014.98 1015.00 1015.10 1015.07 1014.98 1014.76 1011.98 1010.94 1011.15 1011.49 1011.83 1012.30 1012.56 1013.04 1013.44 1014.12 1014.27 1014.46 1014.45 1014.23 1013.59 1012.86 1012.51 1012.22 1012.34 1012.38 1012.28 1012.54 1012.76 1012.33 1012.31 1012.84 1013.82 1014.37
1015.46 1015.47 1015.55 1015.73 1015.83 1015.86 1015.79 1015.81 1015.69 1015.57 1015.30 1015.10 1014.79 1014.79 1014.80 1014.99 1014.06 1011.54 1010.94 1010.82 1011.09 1011.77 1012.45 1012.87 1013.33 1013.79 1013.95 1014.18 1013.85 1014.21 1013.46 1013.26 1012.62 1012.37 1012.49 1012.47 1012.32 1012.35 1012.26 1011.57 1011.41 1011.92 1012.61 1013.65 1014.20
1015.08 1015.11 1015.15 1015.24 1015.54 1015.72 1015.78 1015.75 1015.70 1015.53 1015.45 1015.28 1015.00 1014.67 1014.76 1014.58 1013.23 1011.63 1011.41 1011.26 1011.50 1011.84 1012.13 1012.85 1013.32 1013.57 1013.66 1013.77 1013.77 1013.76 1013.08 1012.74 1012.58 1012.54 1012.56 1012.54 1012.45 1012.56 1011.90 1011.25 1011.28 1011.84 1012.39 1013.08 1013.62
1014.68 1014.71 1014.68 1014.78 1014.73 1015.13 1015.46 1015.56 1015.47 1015.55 1015.42 1015.33 1015.05 1014.87 1014.78 1013.58 1012.12 1011.76 1011.85 1011.93 1011.87 1012.09 1012.19 1012.42 1012.58 1012.90 1013.21 1013.33 1013.31 1012.70 1012.76 1012.66 1012.51 1012.59 1012.68 1012.90 1012.68 1012.52 1011.07 1011.00 1011.40 1011.75 1012.05 1012.52 1013.15
1014.29 1014.22 1014.22 1014.36 1014.56 1014.53 1014.77 1015.16 1015.27 1015.26 1015.36 1015.16 1015.08 1015.06 1014.04 1012.30 1011.80 1011.77 1011.75 1012.07 1012.10 1012.15 1012.28 1012.16 1012.17 1012.55 1012.89 1013.21 1012.81 1012.79 1013.07 1013.01 1012.78 1012.79 1012.83 1013.01 1012.90 1011.75 1010.89 1010.97 1011.28 1011.72 1012.09 1012.30 1012.51
1014.00 1013.65 1013.75 1013.85 1014.08 1014.24 1014.15 1014.58 1015.07 1015.12 1015.14 1015.02 1014.84 1014.80 1012.65 1011.74 1011.62 1011.89 1011.82 1011.96 1012.01 1012.09 1012.03 1011.97 1012.13 1012.46 1012.78 1013.07 1013.20 1013.36 1013.58 1013.61 1012.76 1012.87 1012.80 1013.12 1012.36 1011.05 1010.70 1011.06 1011.28 1011.33 1011.69 1012.03 1012.09
1013.31 1013.37 1013.25 1013.48 1013.57 1013.86 1014.04 1013.87 1014.44 1014.67 1014.74 1014.86 1014.87 1014.80 1012.26 1010.98 1011.15 1011.02 1011.50 1011.76 1011.89 1012.00 1012.00 1012.01 1012.32 1012.69 1012.95 1013.63 1014.27 1014.23 1014.21 1014.05 1013.34 1012.88 1012.99 1013.19 1012.35 1011.00 1010.90 1011.13 1011.35 1011.41 1011.54 1011.70 1011.79
1012.58 1012.53 1012.65 1012.82 1012.97 1013.39 1013.54 1013.82 1013.67 1014.20 1014.36 1014.48 1014.60 1014.90 1011.82 1010.73 1010.56 1010.58 1010.88 1011.54 1011.70 1012.05 1012.32 1012.41 1012.73 1012.98 1013.48 1013.79 1013.78 1014.61 1014.52 1013.96 1013.71 1013.26 1013.38 1013.34 1012.71 1011.23 1011.21 1011.34 1011.38 1011.31 1011.15 1011.30 1011.30
1011.94 1011.90 1012.11 1012.47 1012.38 1012.76 1013.30 1013.89 1014.26 1014.23 1013.79 1012.65 1012.44 1011.54 1010.33 1009.97 1010.00 1010.56 1010.56 1011.21 1011.68 1012.06 1012.34 1012.48 1012.81 1011.73 1012.71 1012.96 1013.28 1013.74 1014.00 1013.93 1013.55 1013.11 1013.44 1013.24 1012.62 1011.70 1011.24 1011.50 1011.23 1010.69 1010.49 1010.35 1010.14
1011.03 1011.11 1011.20 1011.53 1011.97 1011.92 1012.44 1012.68 1012.73 1013.59 1013.01 1012.31 1011.69 1011.37 1010.46 1010.19 1010.11 1010.16 1010.41 1011.02 1011.48 1011.71 1012.29 1012.87 1011.30 1012.05 1012.58 1013.02 1013.31 1013.60 1013.92 1013.96 1013.53 1013.37 1013.81 1013.37 1012.56 1011.68 1010.81 1010.70 1010.34 1010.01 1009.66 1009.32 1009.32
1010.13 1010.22 1010.45 1010.85 1011.01 1011.52 1011.26 1011.87 1012.34 1012.70 1012.88 1011.14 1010.59 1010.15 1010.13 1010.68 1010.11 1009.67 1010.03 1009.99 1010.53 1011.57 1011.52 1011.46 1011.24 1011.86 1012.34 1012.69 1013.20 1013.38 1013.55 1013.91 1013.74 1013.69 1013.86 1013.71 1012.15 1011.26 1009.69 1009.35 1009.11 1009.08 1008.73 1008.49 1008.27
1009.23 1009.39 1009.82 1010.24 1010.92 1010.58 1010.39 1011.86 1012.30 1013.35 1013.36 1010.30 1009.56 1008.26 1009.19 1009.75 1009.45 1009.07 1009.22 1009.42 1009.96 1010.34 1011.53 1011.73 1011.20 1011.52 1011.87 1012.13 1012.43 1012.90 1013.19 1013.54 1013.98 1014.35 1014.70 1014.07 1012.29 1011.05 1009.78 1009.04 1008.53 1008.14 1008.05 1007.61 1007.90
1008.43 1008.50 1008.82 1009.40 1009.64 1009.66 1010.34 1011.23 1012.59 1014.15 1012.09 1008.63 1008.00 1006.92 1007.31 1008.19 1007.89 1008.03 1008.41 1008.92 1008.96 1009.40 1010.69 1010.22 1010.79 1011.47 1011.69 1011.00 1011.93 1011.84 1012.42 1013.37 1014.13 1014.70 1014.75 1014.37 1014.22 1010.51 1009.98 1009.04 1007.97 1007.21 1007.24 1007.62 1007.77
1007.32 1007.57 1008.11 1008.68 1009.16 1009.56 1009.79 1011.19 1013.09 1013.85 1010.41 1008.23 1007.45 1006.80 1007.44 1007.57 1007.80 1008.06 1008.17 1008.56 1008.52 1009.25 1009.50 1009.82 1009.98 1010.12 1009.67 1010.46 1010.99 1011.72 1012.80 1013.92 1014.64 1015.26 1014.87 1013.84 1013.91 1010.01 1009.43 1008.28 1007.16 1006.75 1007.17 1007.86 1008.20
1006.25 1006.57 1007.39 1007.79 1008.48 1009.03 1009.42 1011.67 1012.87 1011.29 1009.27 1008.26 1007.46 1006.87 1006.73 1006.66 1007.48 1007.34 1007.78 1008.24 1008.01 1008.79 1009.42 1009.91 1009.79 1009.45 1009.52 1010.19 1011.04 1010.93 1012.00 1013.93 1015.06 1015.47 1013.97 1013.32 1013.09 1009.13 1008.19 1007.39 1007.17 1007.12 1007.20 1007.80 1008.48
1005.29 1005.80 1006.30 1007.19 1007.94 1007.83 1009.35 1011.35 1010.94 1009.28 1008.51 1007.22 1006.74 1006.74 1006.62 1006.65 1007.07 1007.00 1007.10 1007.42 1007.60 1007.72 1008.39 1009.00 1009.62 1008.87 1008.67 1008.75 1009.61 1010.42 1010.58 1011.32 1012.61 1013.57 1013.83 1013.65 1011.41 1008.41 1007.20 1006.87 1006.95 1007.11 1007.23 1007.69 1008.60
1004.37 1005.09 1006.16 1007.03 1007.01 1008.15 1009.46 1009.65 1008.61 1008.09 1007.31 1007.02 1006.81 1006.62 1006.79 1006.67 1006.43 1006.76 1006.57 1006.11 1006.07 1006.44 1007.22 1007.90 1008.27 1007.95 1007.82 1007.92 1008.25 1009.30 1009.20 1009.30 1011.20 1012.51 1013.08 1011.96 1010.06 1008.36 1006.86 1006.76 1006.75 1006.97 1007.35 1007.73 1008.53
1002.96 1004.51 1005.52 1005.82 1006.79 1007.73 1009.33 1008.36 1008.14 1007.56 1007.12 1006.78 1006.50 1006.05 1006.58 1006.55 1006.56 1006.46 1006.19 1005.43 1005.80 1005.96 1006.11 1006.61 1007.61 1007.70 1007.89 1007.63 1007.91 1007.34 1007.80 1009.43 1010.17 1011.46 1012.05 1010.85 1009.87 1008.13 1007.12 1006.78 1006.97 1007.06 1007.32 1007.71 1008.29
1003.10 1004.24 1005.33 1005.29 1006.50 1007.77 1008.29 1008.06 1007.96 1007.48 1007.45 1007.30 1006.49 1006.50 1006.32 1006.21 1006.43 1005.90 1004.75 1004.47 1004.33 1004.83 1006.02 1006.24 1006.61 1008.17 1008.15 1007.49 1006.91 1007.65 1007.78 1008.25 1008.80 1010.02 1010.15 1010.13 1008.70 1007.36 1006.97 1006.89 1007.13 1007.39 1007.54 1007.90 1008.26
1003.17 1004.74 1004.51 1005.25 1006.55 1007.37 1007.73 1007.74 1007.54 1007.54 1007.66 1007.44 1007.07 1006.84 1006.35 1005.78 1005.79 1005.95 1005.08 1004.29 1003.68 1004.33 1005.38 1005.47 1006.59 1007.89 1007.88 1007.65 1007.28 1006.78 1006.88 1007.17 1007.81 1009.05 1009.29 1009.24 1008.35 1007.50 1007.33 1007.42 1007.60 1007.75 1007.80 1008.05 1008.55
1002.95 1004.09 1004.85 1005.30 1006.14 1007.46 1007.98 1007.82 1007.73 1007.95 1007.95 1007.55 1007.32 1007.03 1006.69 1006.25 1005.96 1005.26 1004.96 1004.41 1004.36 1004.57 1004.31 1004.84 1006.11 1007.67 1008.45 1008.47 1007.91 1007.34 1007.03 1006.85 1007.55 1008.04 1008.52 1008.79 1008.07 1007.79 1007.71 1007.81 1007.85 1008.03 1008.14 1008.44 1008.63
1002.09 1004.14 1005.54 1006.05 1006.64 1007.45 1008.05 1008.21 1008.20 1008.23 1008.00 1007.84 1007.61 1007.37 1007.09 1006.72 1006.07 1005.47 1005.09 1004.76 1004.65 1004.59 1004.51 1004.61 1005.56 1005.88 1005.98 1005.71 1006.44 1007.24 1006.68 1006.59 1006.79 1007.35 1007.24 1007.36 1007.60 1007.74 1007.88 1007.97 1008.14 1008.32 1008.41 1008.58 1008.92
1001.57 1004.15 1004.72 1006.20 1007.08 1007.61 1007.92 1008.30 1008.32 1008.35 1008.19 1007.91 1007.82 1007.53 1007.25 1007.13 1006.53 1006.02 1005.41 1005.28 1005.27 1004.60 1004.65 1004.94 1005.56 1006.14 1006.07 1006.14 1006.12 1006.19 1006.54 1006.72 1006.71 1006.34 1006.83 1006.63 1007.14 1007.19 1007.19 1007.53 1008.04 1008.22 1008.50 1008.71 1008.88
1001.24 1003.25 1005.40 1006.21 1006.72 1007.66 1007.85 1008.22 1007.94 1008.06 1008.13 1008.01 1007.81 1007.53 1007.32 1007.18 1006.83 1006.48 1006.14 1005.38 1004.99 1005.11 1005.08 1005.36 1005.49 1006.24 1006.98 1006.82 1006.46 1006.44 1006.10 1006.29 1006.39 1006.14 1006.40 1006.59 1006.80 1006.44 1006.59 1007.35 1007.96 1008.18 1008.50 1008.58 1008.42
1001.24 1002.46 1003.69 1006.31 1006.73 1007.34 1007.67 1007.60 1007.47 1007.57 1007.96 1007.70 1007.52 1007.54 1007.18 1006.86 1007.03 1006.65 1006.15 1006.05 1005.20 1004.68 1005.10 1005.42 1005.97 1006.52 1006.77 1007.34 1007.10 1007.05 1005.96 1006.02 1006.12 1006.13 1006.01 1006.34 1005.87 1006.43 1006.88 1007.31 1007.57 1008.01 1008.42 1008.49 1008.62
Thickness
5590 5591 5596 5599 5601 5604 5608 5613 5617 5619 5622 5626 5629 5633 5638 5642 5648 5652 5658 5676 5682 5684 5686 5681 5680 5680 5680 5677 5678 5674 5659 5655 5673 5669 5689 5694 5694 5699 5704 5704 5704 5705 5708 5709 5704
5576 5579 5581 5584 5588 5591 5595 5600 5606 5610 5614 5617 5619 5624 5629 5634 5639 5648 5670 5672 5676 5677 5676 5674 5669 5670 5665 5670 5669 5664 5653 5666 5682 5684 5691 5696 5694 5698 5697 5696 5699 5703 5705 5703 5700
5561 5565 5567 5570 5574 5578 5582 5586 5590 5597 5603 5607 5610 5614 5618 5623 5630 5658 5667 5669 5670 5670 5668 5669 5667 5667 5661 5663 5663 5661 5664 5674 5685 5688 5693 5692 5693 5696 5693 5689 5696 5699 5704 5697 5694
5545 5548 5553 5556 5558 5562 5567 5570 5575 5580 5587 5593 5600 5603 5608 5612 5618 5650 5658 5663 5665 5662 5659 5656 5655 5652 5653 5652 5661 5659 5669 5674 5685 5686 5684 5687 5692 5693 5691 5701 5711 5705 5703 5693 5692
5529 5532 5535 5539 5541 5544 5548 5553 5559 5565 5570 5577 5584 5591 5596 5600 5615 5638 5644 5648 5652 5653 5653 5648 5645 5644 5646 5647 5651 5653 5668 5670 5674 5677 5679 5682 5685 5687 5692 5700 5706 5706 5701 5695 5694
5511 5514 5517 5519 5526 5528 5531 5535 5542 5547 5553 5559 5567 5573 5580 5591 5616 5622 5628 5631 5637 5639 5642 5643 5644 5644 5641 5643 5645 5657 5660 5667 5668 5670 5671 5673 5678 5684 5704 5698 5700 5700 5700 5698 5693
5492 5495 5499 5501 5504 5510 5515 5517 5521 5528 5534 5542 5549 5554 5569 5595 5604 5609 5614 5617 5621 5627 5629 5636 5640 5638 5636 5639 5643 5648 5651 5653 5657 5662 5664 5663 5664 5682 5696 5697 5699 5698 5695 5696 5695
5471 5477 5479 5482 5485 5490 5497 5501 5502 5509 5517 5524 5532 5539 5564 5586 5591 5597 5600 5604 5610 5614 5622 5626 5628 5631 5630 5631 5628 5634 5634 5629 5655 5654 5659 5659 5658 5692 5694 5689 5691 5694 5694 5695 5694
5453 5455 5459 5461 5466 5469 5475 5482 5484 5489 5497 5504 5511 5517 5548 5576 5581 5590 5590 5594 5598 5603 5607 5613 5614 5613 5616 5606 5604 5597 5605 5619 5642 5645 5648 5647 5656 5684 5683 5683 5682 5685 5689 5693 5692
5430 5436 5443 5443 5447 5448 5453 5458 5468 5469 5477 5484 5491 5492 5539 5559 5571 5574 5579 5579 5584 5586 5590 5593 5588 5590 5582 5588 5589 5598 5610 5619 5626 5639 5635 5636 5640 5669 5670 5671 5673 5678 5684 5687 5691
5415 5418 5421 5423 5427 5429 5432 5434 5443 5446 5458 5480 5492 5509 5537 5548 5558 5558 5564 5566 5567 5568 5566 5575 5577 5597 5598 5602 5609 5608 5606 5612 5616 5625 5625 5625 5635 5654 5664 5659 5663 5678 5682 5685 5692
5401 5404 5408 5412 5413 5415 5413 5425 5436 5436 5445 5460 5476 5489 5507 5519 5531 5544 5548 5552 5550 5550 5555 5557 5577 5588 5587 5589 5592 5594 5594 5596 5608 5613 5610 5617 5626 5641 5656 5657 5666 5674 5682 5689 5693
5390 5393 5396 5398 5404 5402 5406 5416 5414 5418 5419 5448 5464 5479 5495 5495 5508 5527 5536 5544 5544 5536 5550 5562 5580 5576 5580 5575 5581 5580 5583 5587 5596 5600 5600 5604 5617 5633 5660 5660 5664 5667 5681 5688 5698
5380 5383 5383 5387 5383 5401 5402 5401 5394 5393 5390 5429 5453 5471 5481 5482 5489 5516 5526 5533 5534 5541 5529 5541 5558 5561 5558 5572 5576 5574 5579 5583 5583 5584 5570 5594 5596 5621 5643 5656 5664 5668 5674 5688 5687
5371 5374 5376 5375 5380 5395 5397 5393 5381 5368 5377 5432 5447 5467 5478 5480 5505 5502 5515 5516 5524 5532 5528 5539 5535 5534 5545 5569 5567 5575 5572 5570 5568 5565 5571 5579 5569 5598 5624 5642 5658 5673 5674 5675 5679
5366 5368 5366 5366 5372 5385 5389 5376 5364 5355 5364 5417 5435 5456 5462 5475 5485 5492 5494 5504 5515 5515 5523 5533 5535 5539 5555 5558 5561 5554 5551 5544 5531 5541 5538 5563 5567 5603 5616 5640 5665 5672 5670 5662 5660
5361 5364 5360 5362 5367 5376 5376 5359 5352 5359 5399 5408 5430 5451 5462 5470 5474 5480 5483 5481 5491 5486 5491 5513 5520 5534 5540 5539 5541 5547 5542 5508 5500 5487 5547 5541 5556 5619 5623 5631 5645 5654 5655 5652 5644
5357 5358 5358 5360 5364 5372 5363 5348 5349 5362 5389 5423 5427 5441 5447 5453 5460 5463 5475 5477 5486 5498 5491 5495 5497 5518 5532 5536 5530 5537 5547 5531 5523 5515 5547 5532 5566 5606 5623 5621 5623 5631 5644 5645 5639
5353 5352 5348 5352 5361 5357 5348 5352 5368 5377 5420 5416 5420 5429 5427 5445 5456 5454 5464 5488 5498 5503 5505 5501 5506 5517 5525 5538 5543 5530 5537 5559 5528 5467 5522 5535 5561 5591 5610 5614 5618 5620 5629 5637 5633
5354 5345 5345 5356 5353 5354 5338 5371 5365 5395 5401 5403 5412 5418 5417 5429 5431 5445 5451 5477 5484 5496 5504 5502 5500 5507 5516 5526 5526 5538 5556 5530 5526 5508 5500 5539 5557 5583 5604 5609 5607 5613 5617 5627 5624
5342 5342 5341 5349 5349 5344 5348 5357 5370 5383 5389 5389 5394 5388 5412 5417 5419 5442 5451 5478 5496 5499 5490 5495 5505 5486 5494 5507 5524 5519 5523 5524 5534 5522 5536 5538 5552 5569 5591 5593 5592 5597 5604 5611 5615
5330 5330 5340 5341 5334 5343 5357 5358 5378 5378 5382 5383 5387 5389 5401 5418 5427 5425 5443 5472 5485 5491 5478 5492 5477 5454 5489 5487 5496 5525 5529 5538 5532 5517 5510 5534 5544 5558 5571 5573 5575 5585 5590 5593 5596
5332 5334 5334 5341 5342 5333 5342 5355 5361 5367 5367 5376 5381 5386 5390 5402 5408 5426 5434 5454 5462 5471 5481 5483 5463 5443 5443 5464 5472 5487 5505 5521 5515 5513 5511 5520 5539 5546 5554 5562 5565 5573 5579 5575 5586
5329 5327 5320 5331 5331 5333 5335 5342 5344 5358 5364 5358 5369 5373 5386 5393 5394 5411 5427 5437 5442 5461 5475 5481 5453 5487 5491 5515 5501 5489 5505 5511 5524 5518 5531 5533 5548 5545 5549 5548 5551 5555 5560 5565 5568
5325 5316 5327 5330 5329 5325 5330 5338 5339 5343 5356 5362 5353 5364 5376 5380 5388 5399 5408 5421 5427 5449 5460 5461 5463 5450 5483 5491 5496 5501 5502 5496 5494 5527 5519 5543 5528 5544 5545 5540 5536 5542 5548 5555 5559
5326 5325 5310 5317 5335 5331 5327 5321 5346 5350 5351 5352 5351 5348 5369 5375 5390 5394 5405 5411 5427 5434 5435 5442 5425 5426 5450 5457 5457 5472 5490 5489 5502 5517 5512 5509 5516 5534 5539 5526 5528 5534 5539 5547 5554
5334 5335 5331 5327 5321 5327 5318 5332 5345 5344 5341 5350 5355 5354 5362 5376 5373 5385 5392 5398 5414 5429 5434 5438 5423 5431 5464 5437 5456 5453 5462 5483 5496 5497 5515 5501 5537 5523 5526 5523 5527 5526 5528 5534 5540